This is the latest recevied weather packets stored in our database for station/object OK2ILA-1. If no packets are shown the sender has not sent any weather packets the latest 10 day(s).
| Time | Temp. | Humidity | Pressure | Rain* | Wind** | Luminosity | Snow |
|---|---|---|---|---|---|---|---|
| 1777472018 | 10° C | 100% | 1027.4 hPa | 0 mm | - | - | - |
| 1777471297 | 10° C | 100% | 1027.4 hPa | 0 mm | - | - | - |
| 1777470577 | 10.56° C | 100% | 1027.3 hPa | 0 mm | - | - | - |
| 1777469856 | 10° C | 100% | 1027.2 hPa | 0 mm | - | - | - |
| 1777469135 | 10° C | 100% | 1027.1 hPa | 0 mm | - | - | - |
| 1777468415 | 10° C | 100% | 1027 hPa | 0 mm | - | - | - |
| 1777468176 | 10° C | 100% | 1027 hPa | 0 mm | - | - | - |
| 1777467694 | 10° C | 100% | 1027 hPa | 0 mm | - | - | - |
| 1777466973 | 10° C | 100% | 1027 hPa | 0 mm | - | - | - |
| 1777466253 | 10° C | 100% | 1027.2 hPa | 0 mm | - | - | - |
| 1777465532 | 10° C | 100% | 1027.1 hPa | 0 mm | - | - | - |
| 1777464811 | 10° C | 100% | 1027 hPa | 0 mm | - | - | - |
| 1777464091 | 9.44° C | 100% | 1027.1 hPa | 0 mm | - | - | - |
| 1777463370 | 10° C | 100% | 1027 hPa | 0 mm | - | - | - |
| 1777462649 | 9.44° C | 100% | 1027.1 hPa | 0 mm | - | - | - |
| 1777461929 | 10° C | 100% | 1027.1 hPa | 0 mm | - | - | - |
| 1777461208 | 9.44° C | 100% | 1027.2 hPa | 0 mm | - | - | - |
| 1777460487 | 10° C | 100% | 1027.2 hPa | 0 mm | - | - | - |
| 1777459767 | 8.89° C | 100% | 1027.3 hPa | 0 mm | - | - | - |
| 1777459046 | 9.44° C | 100% | 1027.3 hPa | 0 mm | - | - | - |
| 1777458325 | 9.44° C | 100% | 1027.3 hPa | 0 mm | - | - | - |
| 1777457605 | 10.56° C | 100% | 1027.2 hPa | 0 mm | - | - | - |
| 1777456884 | 10° C | 100% | 1027.2 hPa | 0 mm | - | - | - |
| 1777456163 | 9.44° C | 100% | 1027.3 hPa | 0 mm | - | - | - |
| 1777455443 | 10° C | 100% | 1027.3 hPa | 0 mm | - | - | - |
* Rain latest hour (hover to see other rain measurements)
** Current wind speed in m/s (hover to see current wind gust speed)